Time,TemperatureF,DewpointF,PressureIn,WindDirection,WindDirectionDegrees,WindSpeedMPH,WindSpeedGustMPH,Humidity,HourlyPrecipIn,Conditions,Clouds,dailyrainin,SoftwareType,DateUTC
2013-05-31 00:02:00,39.6,39.4,24.13,North,0,23.0,27.0,99,0.00,,,0.12,meteohub,2013-05-31 06:02:00,
2013-05-31 00:07:00,39.6,39.4,24.13,North,0,23.0,27.0,99,0.00,,,0.12,meteohub,2013-05-31 06:07:00,
2013-05-31 00:12:00,39.7,39.6,24.13,North,0,24.0,25.0,99,0.00,,,0.12,meteohub,2013-05-31 06:12:00,
2013-05-31 00:17:00,39.7,39.6,24.13,North,0,21.0,25.0,99,0.00,,,0.12,meteohub,2013-05-31 06:17:00,
2013-05-31 00:22:00,39.7,39.6,24.13,North,0,23.0,25.0,99,0.00,,,0.12,meteohub,2013-05-31 06:22:00,
2013-05-31 00:27:00,39.4,39.2,24.14,North,0,25.0,26.0,99,0.00,,,0.12,meteohub,2013-05-31 06:27:00,
2013-05-31 00:32:00,39.4,39.2,24.13,North,0,25.0,27.0,99,0.00,,,0.12,meteohub,2013-05-31 06:32:00,
2013-05-31 00:37:00,39.4,39.2,24.13,North,0,27.0,27.0,99,0.00,,,0.12,meteohub,2013-05-31 06:37:00,
2013-05-31 00:42:00,39.0,38.8,24.13,North,0,24.0,27.0,99,0.00,,,0.12,meteohub,2013-05-31 06:42:00,
2013-05-31 00:47:00,38.8,38.7,24.13,NW,315,23.0,27.0,99,0.00,,,0.12,meteohub,2013-05-31 06:47:00,
2013-05-31 00:52:00,39.0,38.8,24.14,North,0,20.0,27.0,99,0.00,,,0.12,meteohub,2013-05-31 06:52:00,
2013-05-31 00:57:00,39.0,38.8,24.13,NW,315,22.0,27.0,99,0.00,,,0.12,meteohub,2013-05-31 06:57:00,
2013-05-31 01:02:00,39.0,38.8,24.14,NW,315,22.0,24.0,99,0.00,,,0.12,meteohub,2013-05-31 07:02:00,
2013-05-31 01:07:00,39.0,38.8,24.13,NW,315,22.0,23.0,99,0.00,,,0.12,meteohub,2013-05-31 07:07:00,
2013-05-31 01:12:00,39.0,38.8,24.14,NW,315,20.0,23.0,99,0.00,,,0.12,meteohub,2013-05-31 07:12:00,
2013-05-31 01:17:00,39.2,39.0,24.14,NW,315,20.0,23.0,99,0.00,,,0.12,meteohub,2013-05-31 07:17:00,
2013-05-31 01:22:00,39.7,39.6,24.13,NW,315,19.0,23.0,99,0.00,,,0.12,meteohub,2013-05-31 07:22:00,
2013-05-31 01:27:00,39.7,39.6,24.13,NW,315,20.0,22.0,99,0.00,,,0.12,meteohub,2013-05-31 07:27:00,
2013-05-31 01:32:00,39.6,39.4,24.14,NW,315,21.0,21.0,99,0.00,,,0.12,meteohub,2013-05-31 07:32:00,
2013-05-31 01:37:00,40.1,39.9,24.14,NW,315,23.0,23.0,99,0.00,,,0.12,meteohub,2013-05-31 07:37:00,
2013-05-31 01:42:00,39.7,39.6,24.13,NW,315,19.0,23.0,99,0.00,,,0.12,meteohub,2013-05-31 07:42:00,
2013-05-31 01:47:00,39.7,39.6,24.13,NW,315,25.0,25.0,99,0.00,,,0.12,meteohub,2013-05-31 07:47:00,
2013-05-31 01:52:00,40.1,39.9,24.13,NW,315,23.0,25.0,99,0.01,,,0.13,meteohub,2013-05-31 07:52:00,
2013-05-31 01:57:00,39.7,39.6,24.13,NW,315,24.0,25.0,99,0.01,,,0.13,meteohub,2013-05-31 07:57:00,
2013-05-31 02:02:00,39.7,39.6,24.12,NW,315,25.0,27.0,99,0.01,,,0.13,meteohub,2013-05-31 08:02:00,
2013-05-31 02:07:00,39.7,39.6,24.13,NW,315,25.0,27.0,99,0.01,,,0.13,meteohub,2013-05-31 08:07:00,
2013-05-31 02:12:00,38.7,38.5,24.12,NW,315,24.0,27.0,99,0.01,,,0.13,meteohub,2013-05-31 08:12:00,
2013-05-31 02:17:00,38.1,37.9,24.12,NW,315,30.0,30.0,99,0.01,,,0.13,meteohub,2013-05-31 08:17:00,
2013-05-31 02:22:00,37.8,37.6,24.12,NW,315,29.0,30.0,99,0.01,,,0.13,meteohub,2013-05-31 08:22:00,
2013-05-31 02:27:00,37.4,37.2,24.12,NW,315,29.0,30.0,99,0.01,,,0.13,meteohub,2013-05-31 08:27:00,
2013-05-31 02:32:00,37.2,37.0,24.12,NW,315,37.0,37.0,99,0.01,,,0.13,meteohub,2013-05-31 08:32:00,
2013-05-31 02:37:00,37.2,37.0,24.12,NW,315,34.0,37.0,99,0.01,,,0.13,meteohub,2013-05-31 08:37:00,
2013-05-31 02:42:00,37.2,37.0,24.12,NW,315,34.0,37.0,99,0.01,,,0.13,meteohub,2013-05-31 08:42:00,
2013-05-31 02:47:00,36.0,35.8,24.12,NW,315,35.0,37.0,99,0.02,,,0.14,meteohub,2013-05-31 08:47:00,
2013-05-31 02:52:00,37.0,36.9,24.12,NW,315,33.0,37.0,99,0.01,,,0.14,meteohub,2013-05-31 08:52:00,
2013-05-31 02:57:00,37.0,36.9,24.13,NW,315,32.0,37.0,99,0.01,,,0.14,meteohub,2013-05-31 08:57:00,
2013-05-31 03:02:00,36.9,36.7,24.13,NW,315,31.0,37.0,99,0.01,,,0.14,meteohub,2013-05-31 09:02:00,
2013-05-31 03:07:00,36.9,36.7,24.13,NW,315,31.0,37.0,99,0.01,,,0.14,meteohub,2013-05-31 09:07:00,
2013-05-31 03:12:00,37.0,36.9,24.13,NW,315,26.0,34.0,99,0.02,,,0.15,meteohub,2013-05-31 09:12:00,
2013-05-31 03:17:00,37.0,36.9,24.13,NW,315,26.0,31.0,99,0.02,,,0.15,meteohub,2013-05-31 09:17:00,
2013-05-31 03:22:00,36.9,36.7,24.13,NW,315,27.0,31.0,99,0.02,,,0.15,meteohub,2013-05-31 09:22:00,
2013-05-31 03:27:00,36.9,36.7,24.14,NW,315,26.0,27.0,99,0.02,,,0.15,meteohub,2013-05-31 09:27:00,
2013-05-31 03:32:00,36.9,36.7,24.13,NW,315,25.0,27.0,99,0.02,,,0.15,meteohub,2013-05-31 09:32:00,
2013-05-31 03:37:00,36.9,36.7,24.13,NW,315,24.0,27.0,99,0.02,,,0.15,meteohub,2013-05-31 09:37:00,
2013-05-31 03:42:00,36.7,36.5,24.14,NW,315,24.0,26.0,99,0.02,,,0.15,meteohub,2013-05-31 09:42:00,
2013-05-31 03:47:00,36.7,36.5,24.14,NW,315,23.0,27.0,99,0.01,,,0.15,meteohub,2013-05-31 09:47:00,
2013-05-31 03:52:00,36.7,36.5,24.14,NW,315,25.0,27.0,99,0.02,,,0.17,meteohub,2013-05-31 09:52:00,
2013-05-31 03:57:00,36.9,36.7,24.14,NW,315,22.0,27.0,99,0.02,,,0.17,meteohub,2013-05-31 09:57:00,
2013-05-31 04:02:00,36.7,36.5,24.14,NW,315,23.0,25.0,99,0.02,,,0.17,meteohub,2013-05-31 10:02:00,
2013-05-31 04:07:00,36.7,36.5,24.14,NW,315,23.0,25.0,99,0.02,,,0.17,meteohub,2013-05-31 10:07:00,
2013-05-31 04:12:00,36.3,36.1,24.14,NW,315,25.0,27.0,99,0.01,,,0.17,meteohub,2013-05-31 10:12:00,
2013-05-31 04:17:00,37.0,36.9,24.14,NW,315,27.0,27.0,99,0.02,,,0.18,meteohub,2013-05-31 10:17:00,
2013-05-31 04:22:00,36.3,36.1,24.14,NW,315,25.0,27.0,99,0.02,,,0.18,meteohub,2013-05-31 10:22:00,
2013-05-31 04:27:00,36.3,36.1,24.14,NW,315,26.0,27.0,99,0.02,,,0.18,meteohub,2013-05-31 10:27:00,
2013-05-31 04:32:00,36.3,36.1,24.14,NW,315,24.0,27.0,99,0.02,,,0.18,meteohub,2013-05-31 10:32:00,
2013-05-31 04:37:00,36.1,36.0,24.14,NW,315,24.0,27.0,99,0.02,,,0.18,meteohub,2013-05-31 10:37:00,
2013-05-31 04:42:00,36.7,36.5,24.14,NW,315,27.0,29.0,99,0.02,,,0.18,meteohub,2013-05-31 10:42:00,
2013-05-31 04:47:00,35.8,35.6,24.14,NW,315,26.0,29.0,99,0.04,,,0.19,meteohub,2013-05-31 10:47:00,
2013-05-31 04:52:00,36.0,35.8,24.14,NW,315,23.0,29.0,99,0.02,,,0.19,meteohub,2013-05-31 10:52:00,
2013-05-31 04:57:00,35.8,35.6,24.14,NW,315,26.0,27.0,99,0.02,,,0.19,meteohub,2013-05-31 10:57:00,
2013-05-31 05:02:00,35.8,35.6,24.14,NW,315,24.0,26.0,99,0.02,,,0.19,meteohub,2013-05-31 11:02:00,
2013-05-31 05:07:00,35.8,35.6,24.14,NW,315,24.0,26.0,99,0.02,,,0.19,meteohub,2013-05-31 11:07:00,
2013-05-31 05:12:00,35.8,35.6,24.14,NW,315,23.0,26.0,99,0.04,,,0.20,meteohub,2013-05-31 11:12:00,
2013-05-31 05:17:00,35.6,35.4,24.15,NW,315,25.0,26.0,99,0.02,,,0.20,meteohub,2013-05-31 11:17:00,
2013-05-31 05:22:00,36.1,36.0,24.15,NW,315,24.0,26.0,99,0.02,,,0.20,meteohub,2013-05-31 11:22:00,
2013-05-31 05:27:00,35.6,35.4,24.14,NW,315,27.0,27.0,99,0.02,,,0.20,meteohub,2013-05-31 11:27:00,
2013-05-31 05:32:00,35.6,35.4,24.15,NW,315,25.0,28.0,99,0.02,,,0.20,meteohub,2013-05-31 11:32:00,
2013-05-31 05:37:00,35.6,35.4,24.15,NW,315,25.0,28.0,99,0.02,,,0.20,meteohub,2013-05-31 11:37:00,
2013-05-31 05:42:00,35.6,35.4,24.15,NW,315,25.0,28.0,99,0.02,,,0.20,meteohub,2013-05-31 11:42:00,
2013-05-31 05:47:00,35.6,35.4,24.15,NW,315,27.0,28.0,99,0.01,,,0.20,meteohub,2013-05-31 11:47:00,
2013-05-31 05:52:00,35.6,35.4,24.15,NW,315,27.0,29.0,99,0.02,,,0.21,meteohub,2013-05-31 11:52:00,
2013-05-31 05:57:00,35.6,35.4,24.15,NW,315,26.0,29.0,99,0.02,,,0.21,meteohub,2013-05-31 11:57:00,
2013-05-31 06:02:00,35.6,35.4,24.15,NW,315,29.0,29.0,99,0.02,,,0.21,meteohub,2013-05-31 12:02:00,
2013-05-31 06:07:00,35.6,35.4,24.15,NW,315,29.0,29.0,99,0.02,,,0.21,meteohub,2013-05-31 12:07:00,
2013-05-31 06:12:00,35.8,35.6,24.16,NW,315,26.0,30.0,99,0.02,,,0.22,meteohub,2013-05-31 12:12:00,
2013-05-31 06:17:00,35.8,35.6,24.16,NW,315,27.0,30.0,99,0.02,,,0.22,meteohub,2013-05-31 12:17:00,
2013-05-31 06:22:00,35.8,35.6,24.16,NW,315,27.0,30.0,99,0.04,,,0.24,meteohub,2013-05-31 12:22:00,
2013-05-31 06:27:00,36.0,35.8,24.15,NW,315,30.0,30.0,99,0.04,,,0.24,meteohub,2013-05-31 12:27:00,
2013-05-31 06:32:00,36.0,35.8,24.15,NW,315,29.0,31.0,99,0.04,,,0.24,meteohub,2013-05-31 12:32:00,
2013-05-31 06:37:00,36.0,35.8,24.15,NW,315,33.0,33.0,99,0.05,,,0.25,meteohub,2013-05-31 12:37:00,
2013-05-31 06:42:00,36.1,36.0,24.15,NW,315,29.0,33.0,99,0.05,,,0.25,meteohub,2013-05-31 12:42:00,
2013-05-31 06:47:00,36.1,36.0,24.16,NW,315,29.0,33.0,99,0.05,,,0.25,meteohub,2013-05-31 12:47:00,
2013-05-31 06:52:00,36.1,36.0,24.16,NW,315,28.0,34.0,99,0.04,,,0.25,meteohub,2013-05-31 12:52:00,
2013-05-31 06:57:00,36.1,36.0,24.17,NW,315,27.0,34.0,99,0.05,,,0.26,meteohub,2013-05-31 12:57:00,
2013-05-31 07:02:00,36.1,36.0,24.17,NW,315,27.0,34.0,99,0.05,,,0.26,meteohub,2013-05-31 13:02:00,
2013-05-31 07:07:00,36.1,36.0,24.17,NW,315,27.0,29.0,99,0.05,,,0.26,meteohub,2013-05-31 13:07:00,
2013-05-31 07:12:00,36.0,35.8,24.17,NW,315,30.0,30.0,99,0.06,,,0.26,meteohub,2013-05-31 13:12:00,
2013-05-31 07:17:00,36.0,35.8,24.17,NW,315,30.0,31.0,99,0.06,,,0.28,meteohub,2013-05-31 13:17:00,
2013-05-31 07:22:00,36.1,36.0,24.17,NW,315,30.0,31.0,99,0.06,,,0.30,meteohub,2013-05-31 13:22:00,
2013-05-31 07:27:00,36.1,36.0,24.16,NW,315,30.0,32.0,99,0.06,,,0.30,meteohub,2013-05-31 13:27:00,
2013-05-31 07:32:00,36.1,36.0,24.16,NW,315,32.0,32.0,99,0.05,,,0.30,meteohub,2013-05-31 13:32:00,
2013-05-31 07:37:00,36.1,36.0,24.17,NW,315,33.0,34.0,99,0.06,,,0.31,meteohub,2013-05-31 13:37:00,
2013-05-31 07:42:00,36.1,36.0,24.17,NW,315,30.0,34.0,99,0.06,,,0.31,meteohub,2013-05-31 13:42:00,
2013-05-31 07:47:00,36.1,36.0,24.17,NW,315,31.0,34.0,99,0.07,,,0.32,meteohub,2013-05-31 13:47:00,
2013-05-31 07:52:00,36.1,36.0,24.17,NW,315,30.0,36.0,99,0.07,,,0.32,meteohub,2013-05-31 13:52:00,
2013-05-31 07:57:00,36.3,36.1,24.17,NW,315,28.0,36.0,99,0.06,,,0.32,meteohub,2013-05-31 13:57:00,
2013-05-31 08:02:00,36.1,36.0,24.18,NW,315,30.0,36.0,99,0.07,,,0.33,meteohub,2013-05-31 14:02:00,
2013-05-31 08:07:00,36.1,36.0,24.18,NW,315,30.0,30.0,99,0.07,,,0.33,meteohub,2013-05-31 14:07:00,
2013-05-31 08:12:00,36.1,36.0,24.18,NW,315,31.0,31.0,99,0.06,,,0.34,meteohub,2013-05-31 14:12:00,
2013-05-31 08:17:00,36.1,36.0,24.18,NW,315,29.0,31.0,99,0.06,,,0.34,meteohub,2013-05-31 14:17:00,
2013-05-31 08:22:00,36.3,36.1,24.18,NW,315,30.0,31.0,99,0.06,,,0.34,meteohub,2013-05-31 14:22:00,
2013-05-31 08:27:00,36.5,36.3,24.18,NW,315,27.0,31.0,99,0.06,,,0.35,meteohub,2013-05-31 14:27:00,
2013-05-31 08:32:00,36.5,36.3,24.18,NW,315,30.0,30.0,99,0.06,,,0.35,meteohub,2013-05-31 14:32:00,
2013-05-31 08:37:00,36.5,36.3,24.18,NW,315,30.0,30.0,99,0.06,,,0.37,meteohub,2013-05-31 14:37:00,
2013-05-31 08:42:00,36.3,36.1,24.18,NW,315,28.0,30.0,99,0.06,,,0.37,meteohub,2013-05-31 14:42:00,
2013-05-31 08:47:00,36.3,36.1,24.19,NW,315,29.0,30.0,99,0.05,,,0.37,meteohub,2013-05-31 14:47:00,
2013-05-31 08:52:00,36.5,36.3,24.19,NW,315,29.0,30.0,99,0.05,,,0.37,meteohub,2013-05-31 14:52:00,
2013-05-31 08:57:00,36.7,36.5,24.19,NW,315,27.0,30.0,99,0.05,,,0.38,meteohub,2013-05-31 14:57:00,
2013-05-31 09:02:00,36.5,36.3,24.19,NW,315,28.0,32.0,99,0.05,,,0.38,meteohub,2013-05-31 15:02:00,
2013-05-31 09:07:00,36.5,36.3,24.19,NW,315,28.0,32.0,99,0.05,,,0.38,meteohub,2013-05-31 15:07:00,
2013-05-31 09:12:00,36.7,36.5,24.19,NW,315,29.0,32.0,99,0.05,,,0.39,meteohub,2013-05-31 15:12:00,
2013-05-31 09:17:00,36.7,36.5,24.19,NW,315,28.0,31.0,99,0.05,,,0.39,meteohub,2013-05-31 15:17:00,
2013-05-31 09:22:00,36.5,36.3,24.19,NW,315,30.0,31.0,99,0.04,,,0.39,meteohub,2013-05-31 15:22:00,
2013-05-31 09:27:00,36.9,36.7,24.20,NW,315,26.0,31.0,99,0.04,,,0.39,meteohub,2013-05-31 15:27:00,
2013-05-31 09:32:00,37.0,36.9,24.20,NW,315,27.0,31.0,99,0.04,,,0.40,meteohub,2013-05-31 15:32:00,
2013-05-31 09:37:00,37.2,37.0,24.20,NW,315,28.0,31.0,99,0.04,,,0.40,meteohub,2013-05-31 15:37:00,
2013-05-31 09:42:00,37.6,37.4,24.19,NW,315,30.0,34.0,99,0.04,,,0.40,meteohub,2013-05-31 15:42:00,
2013-05-31 09:47:00,37.6,37.4,24.19,NW,315,34.0,34.0,99,0.04,,,0.40,meteohub,2013-05-31 15:47:00,
2013-05-31 09:52:00,37.6,37.4,24.19,NW,315,34.0,36.0,99,0.02,,,0.40,meteohub,2013-05-31 15:52:00,
2013-05-31 09:57:00,37.6,37.4,24.19,NW,315,33.0,41.0,99,0.04,,,0.41,meteohub,2013-05-31 15:57:00,
2013-05-31 10:02:00,37.6,37.4,24.19,NW,315,36.0,41.0,99,0.04,,,0.41,meteohub,2013-05-31 16:02:00,
2013-05-31 10:07:00,37.6,37.4,24.19,NW,315,36.0,41.0,99,0.04,,,0.41,meteohub,2013-05-31 16:07:00,
2013-05-31 10:12:00,37.8,37.6,24.19,NW,315,33.0,36.0,99,0.02,,,0.41,meteohub,2013-05-31 16:12:00,
2013-05-31 10:17:00,37.8,37.6,24.20,NW,315,34.0,36.0,99,0.02,,,0.41,meteohub,2013-05-31 16:17:00,
2013-05-31 10:22:00,37.8,37.6,24.20,NW,315,36.0,36.0,99,0.02,,,0.41,meteohub,2013-05-31 16:22:00,
2013-05-31 10:27:00,37.8,37.6,24.21,NW,315,34.0,43.0,99,0.04,,,0.43,meteohub,2013-05-31 16:27:00,
2013-05-31 10:32:00,37.9,37.8,24.21,NW,315,34.0,43.0,99,0.02,,,0.43,meteohub,2013-05-31 16:32:00,
2013-05-31 10:37:00,37.9,37.8,24.20,NW,315,40.0,43.0,99,0.02,,,0.43,meteohub,2013-05-31 16:37:00,
2013-05-31 10:42:00,37.9,37.8,24.21,NW,315,43.0,43.0,99,0.02,,,0.43,meteohub,2013-05-31 16:42:00,
2013-05-31 10:47:00,38.3,38.1,24.21,NW,315,33.0,43.0,99,0.02,,,0.43,meteohub,2013-05-31 16:47:00,
2013-05-31 10:52:00,38.3,38.1,24.21,NW,315,34.0,43.0,99,0.01,,,0.43,meteohub,2013-05-31 16:52:00,
2013-05-31 10:57:00,37.9,37.8,24.22,NW,315,36.0,43.0,99,0.01,,,0.43,meteohub,2013-05-31 16:57:00,
2013-05-31 11:02:00,38.3,38.1,24.22,NW,315,35.0,39.0,99,0.01,,,0.43,meteohub,2013-05-31 17:02:00,
2013-05-31 11:07:00,38.3,38.1,24.22,NW,315,35.0,36.0,99,0.01,,,0.43,meteohub,2013-05-31 17:07:00,
2013-05-31 11:12:00,38.5,38.3,24.22,NW,315,32.0,36.0,99,0.02,,,0.44,meteohub,2013-05-31 17:12:00,
2013-05-31 11:22:00,38.8,38.7,24.22,NW,315,38.0,39.0,99,0.01,,,0.44,meteohub,2013-05-31 17:22:00,
2013-05-31 11:27:00,39.0,38.8,24.22,NW,315,42.0,42.0,99,0.01,,,0.44,meteohub,2013-05-31 17:27:00,
2013-05-31 11:37:00,39.4,39.2,24.22,NW,315,40.0,42.0,99,0.04,,,0.46,meteohub,2013-05-31 17:37:00,
2013-05-31 11:42:00,39.9,39.7,24.23,NW,315,43.0,43.0,99,0.04,,,0.46,meteohub,2013-05-31 17:42:00,
2013-05-31 11:47:00,39.2,39.0,24.22,NW,315,40.0,43.0,99,0.05,,,0.47,meteohub,2013-05-31 17:47:00,
2013-05-31 11:52:00,39.4,39.2,24.23,NW,315,40.0,43.0,99,0.05,,,0.47,meteohub,2013-05-31 17:52:00,
2013-05-31 11:57:00,39.4,39.2,24.23,NW,315,40.0,43.0,99,0.05,,,0.47,meteohub,2013-05-31 17:57:00,
2013-05-31 12:02:00,39.7,39.6,24.23,NW,315,37.0,47.0,99,0.06,,,0.48,meteohub,2013-05-31 18:02:00,
2013-05-31 12:07:00,39.7,39.6,24.23,NW,315,37.0,47.0,99,0.06,,,0.48,meteohub,2013-05-31 18:07:00,
2013-05-31 12:12:00,39.9,39.7,24.22,NW,315,40.0,47.0,99,0.06,,,0.50,meteohub,2013-05-31 18:12:00,
2013-05-31 12:17:00,40.5,40.3,24.24,NW,315,39.0,45.0,99,0.07,,,0.51,meteohub,2013-05-31 18:17:00,
2013-05-31 12:22:00,40.1,39.9,24.23,NW,315,39.0,45.0,99,0.08,,,0.52,meteohub,2013-05-31 18:22:00,
2013-05-31 12:27:00,40.5,40.3,24.24,North,0,36.0,45.0,99,0.08,,,0.52,meteohub,2013-05-31 18:27:00,
2013-05-31 12:32:00,40.3,40.1,24.24,North,0,41.0,44.0,99,0.07,,,0.53,meteohub,2013-05-31 18:32:00,
2013-05-31 12:37:00,40.3,40.1,24.24,NW,315,34.0,42.0,99,0.07,,,0.53,meteohub,2013-05-31 18:37:00,
2013-05-31 12:42:00,40.3,40.1,24.24,North,0,36.0,46.0,99,0.08,,,0.54,meteohub,2013-05-31 18:42:00,
2013-05-31 12:47:00,39.7,39.6,24.22,NW,315,60.0,60.0,99,0.07,,,0.54,meteohub,2013-05-31 18:47:00,
2013-05-31 12:52:00,39.4,39.2,24.24,North,0,43.0,60.0,99,0.11,,,0.58,meteohub,2013-05-31 18:52:00,
2013-05-31 12:57:00,40.3,40.1,24.24,North,0,43.0,60.0,99,0.13,,,0.60,meteohub,2013-05-31 18:57:00,
2013-05-31 13:02:00,40.1,39.9,24.24,North,0,46.0,60.0,99,0.12,,,0.60,meteohub,2013-05-31 19:02:00,
2013-05-31 13:12:00,40.6,40.5,24.25,WNW,293,37.0,46.0,99,0.12,,,0.61,meteohub,2013-05-31 19:12:00,
2013-05-31 13:17:00,40.5,40.3,24.24,NW,315,43.0,46.0,99,0.11,,,0.61,meteohub,2013-05-31 19:17:00,
2013-05-31 13:22:00,40.3,40.1,24.24,NW,315,41.0,46.0,99,0.11,,,0.63,meteohub,2013-05-31 19:22:00,
2013-05-31 13:27:00,40.1,39.9,24.24,NW,315,40.0,46.0,99,0.11,,,0.63,meteohub,2013-05-31 19:27:00,
2013-05-31 13:32:00,40.1,39.9,24.24,NW,315,40.0,46.0,99,0.11,,,0.64,meteohub,2013-05-31 19:32:00,
2013-05-31 13:37:00,40.3,40.1,24.25,NW,315,48.0,49.0,99,0.13,,,0.66,meteohub,2013-05-31 19:37:00,
2013-05-31 13:42:00,39.6,39.4,24.25,North,0,49.0,49.0,99,0.13,,,0.67,meteohub,2013-05-31 19:42:00,
2013-05-31 13:47:00,39.6,39.4,24.25,North,0,42.0,49.0,99,0.13,,,0.69,meteohub,2013-05-31 19:47:00,
2013-05-31 13:52:00,40.1,39.9,24.25,NW,315,39.0,49.0,99,0.12,,,0.70,meteohub,2013-05-31 19:52:00,
2013-05-31 13:57:00,40.3,40.1,24.26,NW,315,36.0,49.0,99,0.09,,,0.70,meteohub,2013-05-31 19:57:00,
2013-05-31 14:02:00,39.9,39.7,24.26,NW,315,39.0,42.0,99,0.08,,,0.70,meteohub,2013-05-31 20:02:00,
2013-05-31 14:07:00,39.9,39.7,24.26,NW,315,39.0,40.0,99,0.08,,,0.70,meteohub,2013-05-31 20:07:00,
2013-05-31 14:12:00,40.3,40.1,24.26,NW,315,36.0,40.0,99,0.08,,,0.70,meteohub,2013-05-31 20:12:00,
2013-05-31 14:17:00,40.6,40.5,24.27,NW,315,33.0,40.0,99,0.08,,,0.70,meteohub,2013-05-31 20:17:00,
2013-05-31 14:22:00,40.8,40.6,24.27,North,0,37.0,40.0,99,0.07,,,0.70,meteohub,2013-05-31 20:22:00,
2013-05-31 14:27:00,40.8,40.6,24.27,WNW,293,33.0,40.0,99,0.07,,,0.70,meteohub,2013-05-31 20:27:00,
2013-05-31 14:32:00,40.8,40.6,24.27,NW,315,37.0,39.0,99,0.06,,,0.70,meteohub,2013-05-31 20:32:00,
2013-05-31 14:37:00,40.6,40.5,24.28,NW,315,38.0,40.0,99,0.02,,,0.70,meteohub,2013-05-31 20:37:00,
2013-05-31 14:42:00,40.6,40.5,24.28,NW,315,37.0,40.0,99,0.01,,,0.70,meteohub,2013-05-31 20:42:00,
2013-05-31 14:47:00,41.2,41.0,24.28,NW,315,32.0,40.0,99,0.01,,,0.70,meteohub,2013-05-31 20:47:00,
2013-05-31 14:52:00,41.2,41.0,24.28,NW,315,34.0,38.0,99,0.00,,,0.70,meteohub,2013-05-31 20:52:00,
2013-05-31 14:57:00,40.8,40.6,24.28,NW,315,34.0,39.0,99,0.00,,,0.70,meteohub,2013-05-31 20:57:00,
2013-05-31 15:02:00,40.5,40.3,24.28,NW,315,33.0,39.0,99,0.00,,,0.70,meteohub,2013-05-31 21:02:00,
2013-05-31 15:07:00,40.5,40.3,24.28,NW,315,33.0,36.0,99,0.00,,,0.70,meteohub,2013-05-31 21:07:00,
2013-05-31 15:12:00,40.1,39.9,24.29,NW,315,34.0,36.0,99,0.01,,,0.71,meteohub,2013-05-31 21:12:00,
2013-05-31 15:17:00,39.9,39.7,24.28,WNW,293,35.0,36.0,99,0.01,,,0.71,meteohub,2013-05-31 21:17:00,
2013-05-31 15:22:00,40.1,39.9,24.29,NW,315,30.0,36.0,99,0.01,,,0.71,meteohub,2013-05-31 21:22:00,
2013-05-31 15:27:00,39.9,39.7,24.30,NW,315,32.0,36.0,99,0.01,,,0.71,meteohub,2013-05-31 21:27:00,
2013-05-31 15:32:00,40.1,39.9,24.30,NW,315,30.0,35.0,99,0.01,,,0.71,meteohub,2013-05-31 21:32:00,
2013-05-31 15:37:00,40.3,40.1,24.30,NW,315,30.0,32.0,99,0.01,,,0.71,meteohub,2013-05-31 21:37:00,
2013-05-31 15:42:00,40.5,40.3,24.30,NW,315,30.0,32.0,99,0.02,,,0.72,meteohub,2013-05-31 21:42:00,
2013-05-31 15:47:00,40.5,40.3,24.30,NW,315,28.0,32.0,99,0.02,,,0.72,meteohub,2013-05-31 21:47:00,
2013-05-31 15:52:00,40.8,40.6,24.30,NW,315,26.0,34.0,99,0.02,,,0.72,meteohub,2013-05-31 21:52:00,
2013-05-31 15:57:00,39.2,39.0,24.32,North,0,24.0,34.0,99,0.02,,,0.72,meteohub,2013-05-31 21:57:00,
2013-05-31 16:02:00,37.8,37.6,24.32,NE,45,22.0,34.0,99,0.02,,,0.72,meteohub,2013-05-31 22:02:00,
2013-05-31 16:07:00,37.8,37.6,24.32,NE,45,22.0,28.0,99,0.04,,,0.73,meteohub,2013-05-31 22:07:00,
2013-05-31 16:12:00,38.3,38.1,24.32,North,0,20.0,27.0,99,0.05,,,0.73,meteohub,2013-05-31 22:12:00,
2013-05-31 16:17:00,38.1,37.9,24.33,North,0,18.0,22.0,99,0.05,,,0.76,meteohub,2013-05-31 22:17:00,
2013-05-31 16:22:00,38.1,37.9,24.33,North,0,27.0,27.0,99,0.06,,,0.77,meteohub,2013-05-31 22:22:00,
2013-05-31 16:27:00,38.5,38.3,24.32,North,0,22.0,27.0,99,0.06,,,0.77,meteohub,2013-05-31 22:27:00,
2013-05-31 16:32:00,38.1,37.9,24.33,North,0,24.0,27.0,99,0.07,,,0.78,meteohub,2013-05-31 22:32:00,
2013-05-31 16:37:00,37.9,37.8,24.32,North,0,26.0,27.0,99,0.06,,,0.78,meteohub,2013-05-31 22:37:00,
2013-05-31 16:42:00,37.9,37.8,24.33,North,0,24.0,27.0,99,0.07,,,0.79,meteohub,2013-05-31 22:42:00,
2013-05-31 16:47:00,38.1,37.9,24.33,North,0,25.0,27.0,99,0.07,,,0.79,meteohub,2013-05-31 22:47:00,
2013-05-31 16:52:00,38.3,38.1,24.33,North,0,25.0,27.0,99,0.07,,,0.79,meteohub,2013-05-31 22:52:00,
2013-05-31 16:57:00,38.1,37.9,24.34,North,0,22.0,27.0,99,0.07,,,0.79,meteohub,2013-05-31 22:57:00,
2013-05-31 17:02:00,38.5,38.3,24.34,North,0,23.0,26.0,99,0.07,,,0.80,meteohub,2013-05-31 23:02:00,
2013-05-31 17:07:00,38.5,38.3,24.33,North,0,23.0,26.0,99,0.07,,,0.80,meteohub,2013-05-31 23:07:00,
2013-05-31 17:12:00,38.3,38.1,24.34,North,0,23.0,24.0,99,0.05,,,0.80,meteohub,2013-05-31 23:12:00,
2013-05-31 17:17:00,38.7,38.5,24.34,North,0,22.0,25.0,99,0.05,,,0.81,meteohub,2013-05-31 23:17:00,
2013-05-31 17:22:00,38.3,38.1,24.34,North,0,25.0,25.0,99,0.05,,,0.81,meteohub,2013-05-31 23:22:00,
2013-05-31 17:27:00,38.1,37.9,24.35,North,0,26.0,26.0,99,0.04,,,0.81,meteohub,2013-05-31 23:27:00,
2013-05-31 17:32:00,38.7,38.5,24.35,North,0,20.0,27.0,99,0.04,,,0.81,meteohub,2013-05-31 23:32:00,
2013-05-31 17:37:00,37.9,37.8,24.35,North,0,22.0,27.0,99,0.05,,,0.83,meteohub,2013-05-31 23:37:00,
2013-05-31 17:42:00,38.3,38.1,24.35,North,0,21.0,26.0,99,0.04,,,0.83,meteohub,2013-05-31 23:42:00,
2013-05-31 17:47:00,38.1,37.9,24.35,North,0,22.0,24.0,99,0.04,,,0.83,meteohub,2013-05-31 23:47:00,
2013-05-31 17:52:00,38.1,37.9,24.36,North,0,22.0,24.0,99,0.04,,,0.83,meteohub,2013-05-31 23:52:00,
2013-05-31 17:57:00,37.9,37.8,24.36,North,0,24.0,24.0,99,0.04,,,0.83,meteohub,2013-05-31 23:57:00,
2013-05-31 18:02:00,38.1,37.9,24.36,North,0,20.0,24.0,99,0.04,,,0.84,meteohub,2013-06-01 00:02:00,
2013-05-31 18:07:00,38.1,37.9,24.36,North,0,20.0,24.0,99,0.04,,,0.00,meteohub,2013-06-01 00:07:00,
2013-05-31 18:12:00,38.3,38.1,24.36,North,0,17.0,24.0,99,0.04,,,0.00,meteohub,2013-06-01 00:12:00,
2013-05-31 18:17:00,38.5,38.3,24.37,North,0,21.0,23.0,99,0.04,,,0.01,meteohub,2013-06-01 00:17:00,
2013-05-31 18:22:00,38.5,38.3,24.37,North,0,23.0,23.0,99,0.04,,,0.01,meteohub,2013-06-01 00:22:00,
2013-05-31 18:27:00,38.7,38.5,24.37,North,0,20.0,23.0,99,0.04,,,0.01,meteohub,2013-06-01 00:27:00,
2013-05-31 18:32:00,38.7,38.5,24.37,North,0,21.0,23.0,99,0.04,,,0.01,meteohub,2013-06-01 00:32:00,
2013-05-31 18:37:00,38.7,38.5,24.37,North,0,21.0,23.0,99,0.04,,,0.02,meteohub,2013-06-01 00:37:00,
2013-05-31 18:42:00,39.9,39.7,24.37,North,0,22.0,23.0,99,0.04,,,0.02,meteohub,2013-06-01 00:42:00,
2013-05-31 18:47:00,40.3,40.1,24.37,North,0,21.0,23.0,99,0.04,,,0.02,meteohub,2013-06-01 00:47:00,
2013-05-31 18:52:00,38.5,38.3,24.37,WNW,293,21.0,23.0,99,0.04,,,0.02,meteohub,2013-06-01 00:52:00,
2013-05-31 18:57:00,38.5,38.3,24.38,NW,315,23.0,23.0,99,0.02,,,0.02,meteohub,2013-06-01 00:57:00,
2013-05-31 19:02:00,38.5,38.3,24.37,NW,315,21.0,23.0,99,0.04,,,0.04,meteohub,2013-06-01 01:02:00,
2013-05-31 19:12:00,38.7,38.5,24.38,NW,315,20.0,23.0,99,0.02,,,0.04,meteohub,2013-06-01 01:12:00,
2013-05-31 19:17:00,38.7,38.5,24.38,North,0,18.0,23.0,99,0.02,,,0.04,meteohub,2013-06-01 01:17:00,
2013-05-31 19:22:00,39.0,38.8,24.38,NW,315,18.0,23.0,99,0.04,,,0.05,meteohub,2013-06-01 01:22:00,
2013-05-31 19:27:00,38.8,38.7,24.38,NW,315,21.0,25.0,99,0.04,,,0.05,meteohub,2013-06-01 01:27:00,
2013-05-31 19:32:00,39.0,38.8,24.38,North,0,18.0,25.0,99,0.04,,,0.05,meteohub,2013-06-01 01:32:00,
2013-05-31 19:37:00,38.8,38.7,24.38,NW,315,20.0,25.0,99,0.02,,,0.05,meteohub,2013-06-01 01:37:00,
2013-05-31 19:42:00,37.0,36.9,24.38,North,0,20.0,25.0,99,0.02,,,0.05,meteohub,2013-06-01 01:42:00,
2013-05-31 19:47:00,38.7,38.5,24.38,NW,315,22.0,22.0,99,0.02,,,0.05,meteohub,2013-06-01 01:47:00,
2013-05-31 19:52:00,39.6,39.4,24.38,NW,315,23.0,23.0,99,0.02,,,0.05,meteohub,2013-06-01 01:52:00,
2013-05-31 19:57:00,38.7,38.5,24.38,NW,315,23.0,23.0,99,0.02,,,0.05,meteohub,2013-06-01 01:57:00,
2013-05-31 20:02:00,38.8,38.7,24.38,WNW,293,23.0,23.0,99,0.01,,,0.05,meteohub,2013-06-01 02:02:00,
2013-05-31 20:07:00,38.8,38.7,24.38,WNW,293,23.0,23.0,99,0.01,,,0.05,meteohub,2013-06-01 02:07:00,
2013-05-31 20:12:00,38.7,38.5,24.39,NNW,338,18.0,23.0,99,0.02,,,0.06,meteohub,2013-06-01 02:12:00,
2013-05-31 20:17:00,38.5,38.3,24.39,NNW,338,21.0,23.0,99,0.02,,,0.06,meteohub,2013-06-01 02:17:00,
2013-05-31 20:22:00,38.3,38.1,24.39,North,0,18.0,23.0,99,0.01,,,0.06,meteohub,2013-06-01 02:22:00,
2013-05-31 20:27:00,38.5,38.3,24.39,WNW,293,16.0,21.0,99,0.01,,,0.06,meteohub,2013-06-01 02:27:00,
2013-05-31 20:32:00,39.4,39.2,24.40,NW,315,15.0,21.0,99,0.01,,,0.06,meteohub,2013-06-01 02:32:00,
2013-05-31 20:37:00,38.5,38.3,24.39,NW,315,15.0,19.0,99,0.01,,,0.06,meteohub,2013-06-01 02:37:00,
2013-05-31 20:42:00,38.3,38.1,24.40,NW,315,15.0,17.0,99,0.01,,,0.06,meteohub,2013-06-01 02:42:00,
2013-05-31 20:47:00,38.5,38.3,24.40,NW,315,15.0,17.0,99,0.01,,,0.06,meteohub,2013-06-01 02:47:00,
2013-05-31 20:52:00,38.3,38.1,24.39,NW,315,14.0,17.0,99,0.01,,,0.06,meteohub,2013-06-01 02:52:00,
2013-05-31 20:57:00,38.5,38.3,24.40,NW,315,13.0,17.0,99,0.01,,,0.06,meteohub,2013-06-01 02:57:00,
2013-05-31 21:02:00,38.3,38.1,24.40,NW,315,14.0,16.0,99,0.01,,,0.06,meteohub,2013-06-01 03:02:00,
2013-05-31 21:07:00,38.3,38.1,24.40,NW,315,14.0,16.0,99,0.01,,,0.06,meteohub,2013-06-01 03:07:00,
2013-05-31 21:12:00,38.3,38.1,24.40,NW,315,15.0,16.0,99,0.00,,,0.06,meteohub,2013-06-01 03:12:00,
2013-05-31 21:17:00,38.1,37.9,24.40,NW,315,12.0,15.0,99,0.00,,,0.06,meteohub,2013-06-01 03:17:00,
2013-05-31 21:22:00,38.1,37.9,24.40,NW,315,11.0,15.0,99,0.00,,,0.06,meteohub,2013-06-01 03:22:00,
2013-05-31 21:27:00,38.1,37.9,24.40,NW,315,11.0,15.0,99,0.01,,,0.07,meteohub,2013-06-01 03:27:00,
2013-05-31 21:32:00,37.9,37.8,24.40,NW,315,12.0,12.0,99,0.01,,,0.07,meteohub,2013-06-01 03:32:00,
2013-05-31 21:37:00,37.9,37.8,24.40,NW,315,11.0,13.0,99,0.01,,,0.07,meteohub,2013-06-01 03:37:00,
2013-05-31 21:42:00,37.9,37.8,24.40,NW,315,12.0,13.0,99,0.01,,,0.07,meteohub,2013-06-01 03:42:00,
2013-05-31 21:47:00,37.9,37.8,24.41,NW,315,12.0,13.0,99,0.01,,,0.07,meteohub,2013-06-01 03:47:00,
2013-05-31 21:52:00,37.9,37.8,24.41,NW,315,12.0,14.0,99,0.01,,,0.07,meteohub,2013-06-01 03:52:00,
2013-05-31 21:57:00,37.9,37.8,24.41,NW,315,11.0,14.0,99,0.01,,,0.07,meteohub,2013-06-01 03:57:00,
2013-05-31 22:02:00,37.9,37.8,24.41,NW,315,11.0,14.0,99,0.01,,,0.07,meteohub,2013-06-01 04:02:00,
2013-05-31 22:07:00,37.9,37.8,24.41,NW,315,11.0,14.0,99,0.01,,,0.07,meteohub,2013-06-01 04:07:00,
2013-05-31 22:12:00,37.9,37.8,24.41,NW,315,9.0,13.0,99,0.01,,,0.07,meteohub,2013-06-01 04:12:00,
2013-05-31 22:17:00,37.9,37.8,24.41,NW,315,7.0,11.0,99,0.01,,,0.07,meteohub,2013-06-01 04:17:00,
2013-05-31 22:22:00,38.1,37.9,24.41,NW,315,8.0,11.0,99,0.02,,,0.08,meteohub,2013-06-01 04:22:00,
2013-05-31 22:27:00,37.9,37.8,24.42,West,270,7.0,9.0,99,0.01,,,0.08,meteohub,2013-06-01 04:27:00,
2013-05-31 22:32:00,38.1,37.9,24.41,NW,315,7.0,9.0,99,0.01,,,0.08,meteohub,2013-06-01 04:32:00,
2013-05-31 22:37:00,37.9,37.8,24.41,NW,315,8.0,9.0,99,0.02,,,0.09,meteohub,2013-06-01 04:37:00,
2013-05-31 22:42:00,37.9,37.8,24.41,NW,315,7.0,8.0,99,0.02,,,0.09,meteohub,2013-06-01 04:42:00,
2013-05-31 22:47:00,37.9,37.8,24.41,NW,315,5.0,8.0,99,0.02,,,0.09,meteohub,2013-06-01 04:47:00,
2013-05-31 22:52:00,37.9,37.8,24.41,NW,315,4.0,8.0,99,0.02,,,0.09,meteohub,2013-06-01 04:52:00,
2013-05-31 22:57:00,37.9,37.8,24.41,WNW,293,4.0,7.0,99,0.02,,,0.09,meteohub,2013-06-01 04:57:00,
2013-05-31 23:02:00,37.9,37.8,24.42,NW,315,4.0,6.0,99,0.02,,,0.09,meteohub,2013-06-01 05:02:00,
2013-05-31 23:07:00,37.9,37.8,24.41,NW,315,4.0,5.0,99,0.02,,,0.09,meteohub,2013-06-01 05:07:00,
2013-05-31 23:12:00,38.1,37.4,24.41,West,270,2.0,5.0,97,0.02,,,0.09,meteohub,2013-06-01 05:12:00,
2013-05-31 23:17:00,38.1,37.0,24.41,West,270,2.0,4.0,96,0.01,,,0.09,meteohub,2013-06-01 05:17:00,
2013-05-31 23:22:00,38.3,37.0,24.42,NW,315,3.0,4.0,95,0.01,,,0.09,meteohub,2013-06-01 05:22:00,
2013-05-31 23:27:00,38.7,37.0,24.42,West,270,2.0,4.0,94,0.01,,,0.09,meteohub,2013-06-01 05:27:00,
2013-05-31 23:32:00,38.7,36.5,24.41,West,270,2.0,4.0,92,0.01,,,0.09,meteohub,2013-06-01 05:32:00,
2013-05-31 23:37:00,39.0,36.9,24.41,West,270,2.0,3.0,92,0.00,,,0.09,meteohub,2013-06-01 05:37:00,
2013-05-31 23:42:00,39.0,36.7,24.41,West,270,3.0,3.0,91,0.00,,,0.09,meteohub,2013-06-01 05:42:00,
2013-05-31 23:47:00,39.0,36.3,24.41,South,180,2.0,3.0,90,0.00,,,0.09,meteohub,2013-06-01 05:47:00,
2013-05-31 23:52:00,38.8,36.1,24.40,South,180,3.0,3.0,90,0.00,,,0.09,meteohub,2013-06-01 05:52:00,
2013-05-31 23:57:00,38.8,38.7,24.41,SE,135,4.0,4.0,99,0.00,,,0.09,meteohub,2013-06-01 05:57:00,